contact:dominique.lefevre@mio.osupytheas.fr, maurice.libes@osupytheas.fr, didier.mallarino@osupytheas.fr
Project:EMSO http://www.emso-fr.org/EMSO-France
Depth: 2436.0 m
Title:EMSO Ligure Ouest : Data MII capteur CSTAR
DateTime,Latitude,Longitude,Instrument_Serial,Reference_Counts,Signal_Counts,Corrected_Signal_raw_counts,Calculated_Beam_c_inverse_meters,Internal_thermistor_counts
DateTime,Latitude,Longitude,Instrument_Serial,Reference_Counts,Signal_Counts,Corrected_Signal_raw_counts,Calculated_Beam_c_inverse_meters,Internal_thermistor_counts
2021-09-09T00:01:50,42.805,6.029,CST-1368DR,5238,7181,14685,0.246,551
2021-09-09T00:04:52,42.805,6.029,CST-1368DR,5238,7180,14683,0.246,551
2021-09-09T00:07:53,42.805,6.029,CST-1368DR,5238,7180,14683,0.246,551
2021-09-09T00:10:55,42.805,6.029,CST-1368DR,5238,7180,14684,0.246,551
2021-09-09T00:13:56,42.805,6.029,CST-1368DR,5237,7180,14686,0.246,551
2021-09-09T00:16:58,42.805,6.029,CST-1368DR,5237,7179,14684,0.246,551
2021-09-09T00:20:00,42.805,6.029,CST-1368DR,5238,7180,14683,0.246,551
2021-09-09T00:23:01,42.805,6.029,CST-1368DR,5238,7179,14682,0.247,551
2021-09-09T00:26:03,42.805,6.029,CST-1368DR,5238,7180,14682,0.247,551
2021-09-09T00:29:04,42.805,6.029,CST-1368DR,5238,7180,14683,0.246,551
2021-09-09T00:32:06,42.805,6.029,CST-1368DR,5237,7180,14686,0.246,551
2021-09-09T00:35:07,42.805,6.029,CST-1368DR,5238,7179,14682,0.247,551
2021-09-09T00:38:09,42.805,6.029,CST-1368DR,5238,7178,14680,0.247,551
2021-09-09T00:41:11,42.805,6.029,CST-1368DR,5237,7180,14685,0.246,551
2021-09-09T00:44:12,42.805,6.029,CST-1368DR,5237,7180,14686,0.246,551
2021-09-09T00:47:14,42.805,6.029,CST-1368DR,5237,7181,14687,0.245,551
2021-09-09T00:50:15,42.805,6.029,CST-1368DR,5237,7179,14684,0.246,551
2021-09-09T00:53:17,42.805,6.029,CST-1368DR,5237,7179,14684,0.246,551
2021-09-09T00:56:19,42.805,6.029,CST-1368DR,5237,7180,14685,0.246,551
2021-09-09T00:59:20,42.805,6.029,CST-1368DR,5237,7179,14683,0.246,551
2021-09-09T01:02:22,42.805,6.029,CST-1368DR,5237,7179,14684,0.246,551
2021-09-09T01:05:23,42.805,6.029,CST-1368DR,5238,7179,14681,0.247,551
2021-09-09T01:08:25,42.805,6.029,CST-1368DR,5237,7179,14684,0.246,551
2021-09-09T01:11:26,42.805,6.029,CST-1368DR,5238,7180,14683,0.246,551
2021-09-09T01:14:28,42.805,6.029,CST-1368DR,5237,7180,14685,0.246,551
2021-09-09T01:17:30,42.805,6.029,CST-1368DR,5237,7179,14684,0.246,551
2021-09-09T01:20:31,42.805,6.029,CST-1368DR,5237,7179,14684,0.246,551
2021-09-09T01:23:33,42.805,6.029,CST-1368DR,5237,7179,14683,0.246,551
2021-09-09T01:26:34,42.805,6.029,CST-1368DR,5237,7180,14685,0.246,551
2021-09-09T01:29:36,42.805,6.029,CST-1368DR,5238,7179,14681,0.247,551
2021-09-09T01:32:38,42.805,6.029,CST-1368DR,5238,7177,14676,0.248,551
2021-09-09T01:35:39,42.805,6.029,CST-1368DR,5237,7180,14685,0.246,551
2021-09-09T01:38:41,42.805,6.029,CST-1368DR,5237,7180,14685,0.246,551
2021-09-09T01:41:42,42.805,6.029,CST-1368DR,5238,7179,14682,0.247,551
2021-09-09T01:44:44,42.805,6.029,CST-1368DR,5237,7179,14684,0.246,551
2021-09-09T01:47:45,42.805,6.029,CST-1368DR,5237,7180,14685,0.246,551
2021-09-09T01:50:47,42.805,6.029,CST-1368DR,5237,7180,14685,0.246,551
2021-09-09T01:53:49,42.805,6.029,CST-1368DR,5237,7180,14685,0.246,551
2021-09-09T01:56:50,42.805,6.029,CST-1368DR,5237,7178,14682,0.247,551
2021-09-09T01:59:52,42.805,6.029,CST-1368DR,5237,7180,14685,0.246,551
2021-09-09T02:02:53,42.805,6.029,CST-1368DR,5237,7179,14683,0.246,551
2021-09-09T02:05:55,42.805,6.029,CST-1368DR,5237,7180,14685,0.246,551
2021-09-09T02:08:56,42.805,6.029,CST-1368DR,5237,7179,14683,0.246,551
2021-09-09T02:11:58,42.805,6.029,CST-1368DR,5237,7179,14683,0.246,551
2021-09-09T02:15:00,42.805,6.029,CST-1368DR,5237,7179,14683,0.246,551
2021-09-09T02:18:01,42.805,6.029,CST-1368DR,5237,7180,14685,0.246,551
2021-09-09T02:21:03,42.805,6.029,CST-1368DR,5237,7179,14683,0.246,551
2021-09-09T02:24:04,42.805,6.029,CST-1368DR,5237,7180,14685,0.246,551
2021-09-09T02:27:06,42.805,6.029,CST-1368DR,5237,7179,14683,0.246,550
2021-09-09T02:30:08,42.805,6.029,CST-1368DR,5237,7177,14680,0.247,551
2021-09-09T02:33:09,42.805,6.029,CST-1368DR,5237,7179,14684,0.246,551
2021-09-09T02:36:11,42.805,6.029,CST-1368DR,5237,7179,14684,0.246,551
2021-09-09T02:39:12,42.805,6.029,CST-1368DR,5237,7179,14683,0.246,551
2021-09-09T02:42:14,42.805,6.029,CST-1368DR,5237,7179,14683,0.246,551
2021-09-09T02:45:15,42.805,6.029,CST-1368DR,5237,7179,14683,0.246,551
2021-09-09T02:48:17,42.805,6.029,CST-1368DR,5237,7179,14684,0.246,551
2021-09-09T02:51:19,42.805,6.029,CST-1368DR,5237,7179,14683,0.246,551
2021-09-09T02:54:20,42.805,6.029,CST-1368DR,5237,7179,14683,0.246,551
2021-09-09T02:57:22,42.805,6.029,CST-1368DR,5237,7179,14684,0.246,551
2021-09-09T03:00:23,42.805,6.029,CST-1368DR,5237,7177,14679,0.248,551
2021-09-09T03:03:25,42.805,6.029,CST-1368DR,5237,7179,14683,0.246,551
2021-09-09T03:06:27,42.805,6.029,CST-1368DR,5237,7177,14680,0.247,551
2021-09-09T03:09:28,42.805,6.029,CST-1368DR,5237,7179,14684,0.246,551
2021-09-09T03:12:30,42.805,6.029,CST-1368DR,5237,7178,14682,0.247,551
2021-09-09T03:15:31,42.805,6.029,CST-1368DR,5237,7178,14681,0.247,551
2021-09-09T03:18:33,42.805,6.029,CST-1368DR,5237,7177,14679,0.248,551
2021-09-09T03:21:34,42.805,6.029,CST-1368DR,5237,7179,14683,0.246,551
2021-09-09T03:24:36,42.805,6.029,CST-1368DR,5237,7179,14683,0.246,551
2021-09-09T03:27:38,42.805,6.029,CST-1368DR,5237,7179,14683,0.246,551
2021-09-09T03:30:39,42.805,6.029,CST-1368DR,5237,7178,14681,0.247,551
2021-09-09T03:33:41,42.805,6.029,CST-1368DR,5237,7178,14681,0.247,551
2021-09-09T03:36:42,42.805,6.029,CST-1368DR,5237,7179,14683,0.246,551
2021-09-09T03:39:44,42.805,6.029,CST-1368DR,5237,7178,14682,0.247,551
2021-09-09T03:42:45,42.805,6.029,CST-1368DR,5237,7177,14680,0.247,551
2021-09-09T03:45:47,42.805,6.029,CST-1368DR,5237,7178,14682,0.247,551
2021-09-09T03:48:49,42.805,6.029,CST-1368DR,5237,7178,14681,0.247,551
2021-09-09T03:51:50,42.805,6.029,CST-1368DR,5237,7178,14681,0.247,551
2021-09-09T03:54:52,42.805,6.029,CST-1368DR,5237,7179,14683,0.246,551
2021-09-09T03:57:53,42.805,6.029,CST-1368DR,5237,7176,14677,0.248,551
2021-09-09T04:00:55,42.805,6.029,CST-1368DR,5237,7177,14680,0.247,551
2021-09-09T04:03:57,42.805,6.029,CST-1368DR,5237,7177,14679,0.248,551
2021-09-09T04:06:58,42.805,6.029,CST-1368DR,5237,7178,14681,0.247,551
2021-09-09T04:10:00,42.805,6.029,CST-1368DR,5237,7178,14682,0.247,551
2021-09-09T04:13:01,42.805,6.029,CST-1368DR,5237,7178,14682,0.247,551
2021-09-09T04:16:03,42.805,6.029,CST-1368DR,5237,7179,14683,0.246,551
2021-09-09T04:19:04,42.805,6.029,CST-1368DR,5237,7178,14682,0.247,551
2021-09-09T04:22:06,42.805,6.029,CST-1368DR,5237,7177,14680,0.247,551
2021-09-09T04:25:08,42.805,6.029,CST-1368DR,5237,7178,14681,0.247,551
2021-09-09T04:28:09,42.805,6.029,CST-1368DR,5237,7178,14682,0.247,551
2021-09-09T04:31:11,42.805,6.029,CST-1368DR,5237,7175,14676,0.248,551
2021-09-09T04:34:12,42.805,6.029,CST-1368DR,5237,7177,14680,0.247,551
2021-09-09T04:37:14,42.805,6.029,CST-1368DR,5237,7178,14681,0.247,551
2021-09-09T04:40:16,42.805,6.029,CST-1368DR,5237,7177,14679,0.248,551
2021-09-09T04:43:17,42.805,6.029,CST-1368DR,5237,7178,14681,0.247,551
2021-09-09T04:46:19,42.805,6.029,CST-1368DR,5237,7175,14676,0.248,551
2021-09-09T04:49:20,42.805,6.029,CST-1368DR,5237,7178,14682,0.247,551
2021-09-09T04:52:22,42.805,6.029,CST-1368DR,5237,7178,14681,0.247,551
2021-09-09T04:55:23,42.805,6.029,CST-1368DR,5237,7178,14681,0.247,551
2021-09-09T04:58:25,42.805,6.029,CST-1368DR,5237,7177,14680,0.247,551
2021-09-09T05:01:27,42.805,6.029,CST-1368DR,5237,7177,14679,0.248,551
2021-09-09T05:04:28,42.805,6.029,CST-1368DR,5237,7177,14680,0.247,551
2021-09-09T05:07:30,42.805,6.029,CST-1368DR,5237,7176,14677,0.248,551
2021-09-09T05:10:31,42.805,6.029,CST-1368DR,5237,7176,14678,0.248,551
2021-09-09T05:13:33,42.805,6.029,CST-1368DR,5237,7177,14680,0.247,551
2021-09-09T05:16:34,42.805,6.029,CST-1368DR,5237,7177,14679,0.248,551
2021-09-09T05:19:36,42.805,6.029,CST-1368DR,5237,7176,14678,0.248,551
2021-09-09T05:22:38,42.805,6.029,CST-1368DR,5237,7177,14680,0.247,551
2021-09-09T05:25:39,42.805,6.029,CST-1368DR,5237,7177,14680,0.247,551
2021-09-09T05:28:41,42.805,6.029,CST-1368DR,5237,7177,14679,0.248,551
2021-09-09T05:31:42,42.805,6.029,CST-1368DR,5237,7177,14679,0.248,551
2021-09-09T05:34:44,42.805,6.029,CST-1368DR,5237,7177,14680,0.247,551
2021-09-09T05:37:46,42.805,6.029,CST-1368DR,5237,7176,14677,0.248,551
2021-09-09T05:40:47,42.805,6.029,CST-1368DR,5237,7176,14677,0.248,551
2021-09-09T05:43:49,42.805,6.029,CST-1368DR,5237,7177,14679,0.248,551
2021-09-09T05:46:50,42.805,6.029,CST-1368DR,5237,7177,14680,0.247,551
2021-09-09T05:49:52,42.805,6.029,CST-1368DR,5237,7176,14677,0.248,551
2021-09-09T05:52:53,42.805,6.029,CST-1368DR,5237,7174,14673,0.249,551
2021-09-09T05:55:55,42.805,6.029,CST-1368DR,5237,7177,14679,0.248,551
2021-09-09T05:58:57,42.805,6.029,CST-1368DR,5237,7174,14673,0.249,550
2021-09-09T06:01:58,42.805,6.029,CST-1368DR,5237,7176,14678,0.248,551
2021-09-09T06:05:00,42.805,6.029,CST-1368DR,5237,7175,14675,0.249,551
2021-09-09T06:08:01,42.805,6.029,CST-1368DR,5237,7176,14677,0.248,551
2021-09-09T06:11:03,42.805,6.029,CST-1368DR,5237,7175,14676,0.248,551
2021-09-09T06:14:04,42.805,6.029,CST-1368DR,5237,7174,14674,0.249,551
2021-09-09T06:17:06,42.805,6.029,CST-1368DR,5237,7173,14672,0.249,551
2021-09-09T06:20:08,42.805,6.029,CST-1368DR,5237,7176,14678,0.248,551
2021-09-09T06:23:09,42.805,6.029,CST-1368DR,5237,7175,14676,0.248,551
2021-09-09T06:26:11,42.805,6.029,CST-1368DR,5237,7174,14673,0.249,551
2021-09-09T06:29:12,42.805,6.029,CST-1368DR,5237,7175,14676,0.248,551
2021-09-09T06:32:14,42.805,6.029,CST-1368DR,5237,7175,14676,0.248,551
2021-09-09T06:35:16,42.805,6.029,CST-1368DR,5237,7174,14674,0.249,551
2021-09-09T06:38:17,42.805,6.029,CST-1368DR,5237,7175,14676,0.248,551
2021-09-09T06:41:19,42.805,6.029,CST-1368DR,5237,7175,14676,0.248,551
2021-09-09T06:44:20,42.805,6.029,CST-1368DR,5237,7175,14675,0.249,551
2021-09-09T06:47:22,42.805,6.029,CST-1368DR,5237,7176,14678,0.248,551
2021-09-09T06:50:23,42.805,6.029,CST-1368DR,5237,7176,14678,0.248,551
2021-09-09T06:53:25,42.805,6.029,CST-1368DR,5237,7175,14676,0.248,551
2021-09-09T06:56:27,42.805,6.029,CST-1368DR,5237,7174,14674,0.249,551
2021-09-09T06:59:28,42.805,6.029,CST-1368DR,5237,7174,14673,0.249,551
2021-09-09T07:02:30,42.805,6.029,CST-1368DR,5237,7176,14678,0.248,551
2021-09-09T07:05:31,42.805,6.029,CST-1368DR,5237,7175,14676,0.248,551
2021-09-09T07:08:33,42.805,6.029,CST-1368DR,5237,7176,14677,0.248,551
2021-09-09T07:11:35,42.805,6.029,CST-1368DR,5237,7176,14677,0.248,551
2021-09-09T07:14:36,42.805,6.029,CST-1368DR,5237,7177,14679,0.248,551
2021-09-09T07:17:38,42.805,6.029,CST-1368DR,5236,7174,14676,0.248,551
2021-09-09T07:20:39,42.805,6.029,CST-1368DR,5236,7176,14680,0.247,551
2021-09-09T07:23:41,42.805,6.029,CST-1368DR,5236,7175,14679,0.248,551
2021-09-09T07:26:42,42.805,6.029,CST-1368DR,5237,7176,14678,0.248,551
2021-09-09T07:29:44,42.805,6.029,CST-1368DR,5237,7176,14678,0.248,551
2021-09-09T07:32:46,42.805,6.029,CST-1368DR,5236,7176,14680,0.247,551
2021-09-09T07:35:47,42.805,6.029,CST-1368DR,5236,7175,14679,0.248,551
2021-09-09T07:38:49,42.805,6.029,CST-1368DR,5236,7174,14676,0.248,551
2021-09-09T07:41:50,42.805,6.029,CST-1368DR,5237,7176,14677,0.248,551
2021-09-09T07:44:52,42.805,6.029,CST-1368DR,5237,7175,14676,0.248,551
2021-09-09T07:47:54,42.805,6.029,CST-1368DR,5236,7175,14678,0.248,551
2021-09-09T07:50:55,42.805,6.029,CST-1368DR,5236,7175,14678,0.248,551
2021-09-09T07:53:57,42.805,6.029,CST-1368DR,5236,7175,14679,0.248,551
2021-09-09T07:56:58,42.805,6.029,CST-1368DR,5236,7173,14674,0.249,551
2021-09-09T08:00:00,42.805,6.029,CST-1368DR,5236,7175,14678,0.248,551
2021-09-09T08:03:01,42.805,6.029,CST-1368DR,5236,7175,14678,0.248,551
2021-09-09T08:06:03,42.805,6.029,CST-1368DR,5236,7172,14672,0.249,551
2021-09-09T08:09:05,42.805,6.029,CST-1368DR,5236,7175,14678,0.248,551
2021-09-09T08:12:06,42.805,6.029,CST-1368DR,5236,7175,14678,0.248,551
2021-09-09T08:15:08,42.805,6.029,CST-1368DR,5236,7175,14678,0.248,551
2021-09-09T08:18:09,42.805,6.029,CST-1368DR,5236,7175,14679,0.248,550
2021-09-09T08:21:11,42.805,6.029,CST-1368DR,5236,7175,14678,0.248,551
2021-09-09T08:24:12,42.805,6.029,CST-1368DR,5236,7176,14679,0.248,551
2021-09-09T08:27:14,42.805,6.029,CST-1368DR,5236,7174,14676,0.248,551
2021-09-09T08:30:16,42.805,6.029,CST-1368DR,5236,7174,14676,0.248,551
2021-09-09T08:33:17,42.805,6.029,CST-1368DR,5236,7175,14678,0.248,551
2021-09-09T08:36:19,42.805,6.029,CST-1368DR,5236,7175,14679,0.248,551
2021-09-09T08:39:20,42.805,6.029,CST-1368DR,5236,7176,14680,0.247,551
2021-09-09T08:42:22,42.805,6.029,CST-1368DR,5236,7173,14674,0.249,551
2021-09-09T08:45:24,42.805,6.029,CST-1368DR,5236,7175,14679,0.248,551
2021-09-09T08:48:25,42.805,6.029,CST-1368DR,5236,7176,14680,0.247,551
2021-09-09T08:51:27,42.805,6.029,CST-1368DR,5236,7173,14675,0.249,551
2021-09-09T08:54:28,42.805,6.029,CST-1368DR,5236,7173,14675,0.249,551
2021-09-09T08:57:30,42.805,6.029,CST-1368DR,5236,7171,14669,0.250,551
2021-09-09T09:00:31,42.805,6.029,CST-1368DR,5236,7169,14667,0.251,551
2021-09-09T09:03:33,42.805,6.029,CST-1368DR,5236,7174,14675,0.249,551
2021-09-09T09:06:35,42.805,6.029,CST-1368DR,5236,7173,14674,0.249,551
2021-09-09T09:09:36,42.805,6.029,CST-1368DR,5236,7175,14678,0.248,551
2021-09-09T09:12:38,42.805,6.029,CST-1368DR,5236,7175,14679,0.248,551
2021-09-09T09:15:39,42.805,6.029,CST-1368DR,5236,7175,14678,0.248,551
2021-09-09T09:18:41,42.805,6.029,CST-1368DR,5236,7175,14678,0.248,551
2021-09-09T09:21:42,42.805,6.029,CST-1368DR,5236,7175,14678,0.248,551
2021-09-09T09:24:44,42.805,6.029,CST-1368DR,5236,7174,14677,0.248,551
2021-09-09T09:27:46,42.805,6.029,CST-1368DR,5236,7175,14679,0.248,551
2021-09-09T09:30:47,42.805,6.029,CST-1368DR,5236,7175,14678,0.248,551
2021-09-09T09:33:49,42.805,6.029,CST-1368DR,5236,7175,14679,0.248,551
2021-09-09T09:36:50,42.805,6.029,CST-1368DR,5236,7173,14674,0.249,550
2021-09-09T09:39:52,42.805,6.029,CST-1368DR,5236,7175,14678,0.248,551
2021-09-09T09:42:54,42.805,6.029,CST-1368DR,5236,7174,14677,0.248,551
2021-09-09T09:45:55,42.805,6.029,CST-1368DR,5236,7174,14677,0.248,551
2021-09-09T09:48:57,42.805,6.029,CST-1368DR,5236,7172,14673,0.249,551
2021-09-09T09:51:58,42.805,6.029,CST-1368DR,5236,7174,14677,0.248,551
2021-09-09T09:55:00,42.805,6.029,CST-1368DR,5236,7175,14678,0.248,551
2021-09-09T09:58:01,42.805,6.029,CST-1368DR,5236,7174,14675,0.249,551
2021-09-09T10:01:03,42.805,6.029,CST-1368DR,5236,7172,14673,0.249,551
2021-09-09T10:04:05,42.805,6.029,CST-1368DR,5236,7174,14676,0.248,551
2021-09-09T10:07:06,42.805,6.029,CST-1368DR,5236,7174,14675,0.249,551
2021-09-09T10:10:08,42.805,6.029,CST-1368DR,5236,7173,14674,0.249,551
2021-09-09T10:13:09,42.805,6.029,CST-1368DR,5236,7173,14673,0.249,551
2021-09-09T10:16:11,42.805,6.029,CST-1368DR,5236,7173,14673,0.249,551
2021-09-09T10:19:13,42.805,6.029,CST-1368DR,5236,7173,14675,0.249,551
2021-09-09T10:22:14,42.805,6.029,CST-1368DR,5236,7174,14677,0.248,551
2021-09-09T10:25:16,42.805,6.029,CST-1368DR,5236,7175,14678,0.248,551
2021-09-09T10:28:17,42.805,6.029,CST-1368DR,5236,7174,14677,0.248,551
2021-09-09T10:31:19,42.805,6.029,CST-1368DR,5236,7174,14676,0.248,551
2021-09-09T10:34:20,42.805,6.029,CST-1368DR,5236,7173,14673,0.249,551
2021-09-09T10:37:22,42.805,6.029,CST-1368DR,5236,7174,14676,0.248,551
2021-09-09T10:40:24,42.805,6.029,CST-1368DR,5236,7173,14674,0.249,551
2021-09-09T10:43:25,42.805,6.029,CST-1368DR,5236,7175,14678,0.248,551
2021-09-09T10:46:27,42.805,6.029,CST-1368DR,5236,7174,14675,0.249,551
2021-09-09T10:49:28,42.805,6.029,CST-1368DR,5236,7174,14675,0.249,551
2021-09-09T10:52:30,42.805,6.029,CST-1368DR,5236,7173,14674,0.249,551
2021-09-09T10:55:31,42.805,6.029,CST-1368DR,5236,7175,14678,0.248,551
2021-09-09T10:58:33,42.805,6.029,CST-1368DR,5236,7174,14676,0.248,551
2021-09-09T11:01:35,42.805,6.029,CST-1368DR,5236,7173,14674,0.249,551
2021-09-09T11:04:36,42.805,6.029,CST-1368DR,5236,7173,14675,0.249,551
2021-09-09T11:07:38,42.805,6.029,CST-1368DR,5236,7172,14672,0.249,551
2021-09-09T11:10:39,42.805,6.029,CST-1368DR,5236,7174,14675,0.249,551
2021-09-09T11:13:41,42.805,6.029,CST-1368DR,5236,7171,14670,0.250,551
2021-09-09T11:16:43,42.805,6.029,CST-1368DR,5236,7174,14675,0.249,551
2021-09-09T11:19:44,42.805,6.029,CST-1368DR,5236,7173,14673,0.249,551
2021-09-09T11:22:46,42.805,6.029,CST-1368DR,5236,7174,14676,0.248,551
2021-09-09T11:25:47,42.805,6.029,CST-1368DR,5236,7173,14673,0.249,551
2021-09-09T11:28:49,42.805,6.029,CST-1368DR,5236,7173,14674,0.249,551
2021-09-09T11:31:50,42.805,6.029,CST-1368DR,5236,7172,14672,0.249,551
2021-09-09T11:34:52,42.805,6.029,CST-1368DR,5236,7171,14670,0.250,551
2021-09-09T11:37:54,42.805,6.029,CST-1368DR,5236,7172,14672,0.249,551
2021-09-09T11:40:55,42.805,6.029,CST-1368DR,5236,7174,14675,0.249,551
2021-09-09T11:43:57,42.805,6.029,CST-1368DR,5236,7174,14675,0.249,551
2021-09-09T11:46:58,42.805,6.029,CST-1368DR,5236,7173,14674,0.249,551
2021-09-09T11:50:00,42.805,6.029,CST-1368DR,5236,7173,14674,0.249,551
2021-09-09T11:53:01,42.805,6.029,CST-1368DR,5236,7173,14674,0.249,551
2021-09-09T11:56:03,42.805,6.029,CST-1368DR,5236,7171,14670,0.250,551
2021-09-09T11:59:05,42.805,6.029,CST-1368DR,5236,7173,14673,0.249,551
2021-09-09T12:02:06,42.805,6.029,CST-1368DR,5236,7173,14674,0.249,551
2021-09-09T12:05:08,42.805,6.029,CST-1368DR,5236,7172,14672,0.249,551
2021-09-09T12:08:09,42.805,6.029,CST-1368DR,5236,7170,14669,0.250,551
2021-09-09T12:11:11,42.805,6.029,CST-1368DR,5236,7172,14672,0.249,551
2021-09-09T12:14:13,42.805,6.029,CST-1368DR,5236,7173,14673,0.249,551
2021-09-09T12:17:14,42.805,6.029,CST-1368DR,5236,7173,14674,0.249,551
2021-09-09T12:20:16,42.805,6.029,CST-1368DR,5236,7172,14672,0.249,551
2021-09-09T12:23:17,42.805,6.029,CST-1368DR,5236,7173,14674,0.249,551
2021-09-09T12:26:19,42.805,6.029,CST-1368DR,5236,7172,14673,0.249,551
2021-09-09T12:29:20,42.805,6.029,CST-1368DR,5236,7172,14672,0.249,551
2021-09-09T12:32:22,42.805,6.029,CST-1368DR,5236,7173,14673,0.249,551
2021-09-09T12:35:24,42.805,6.029,CST-1368DR,5236,7172,14672,0.249,551
2021-09-09T12:38:25,42.805,6.029,CST-1368DR,5236,7172,14673,0.249,551
2021-09-09T12:41:27,42.805,6.029,CST-1368DR,5236,7171,14670,0.250,551
2021-09-09T12:44:28,42.805,6.029,CST-1368DR,5236,7171,14670,0.250,551
2021-09-09T12:47:30,42.805,6.029,CST-1368DR,5236,7172,14672,0.249,551
2021-09-09T12:50:32,42.805,6.029,CST-1368DR,5236,7172,14672,0.249,551
2021-09-09T12:53:33,42.805,6.029,CST-1368DR,5236,7171,14670,0.250,551
2021-09-09T12:56:35,42.805,6.029,CST-1368DR,5236,7171,14669,0.250,551
2021-09-09T12:59:36,42.805,6.029,CST-1368DR,5236,7170,14667,0.251,551
2021-09-09T13:02:38,42.805,6.029,CST-1368DR,5236,7172,14672,0.249,551
2021-09-09T13:05:39,42.805,6.029,CST-1368DR,5236,7170,14667,0.251,551
2021-09-09T13:08:41,42.805,6.029,CST-1368DR,5236,7172,14671,0.250,551
2021-09-09T13:11:43,42.805,6.029,CST-1368DR,5236,7171,14670,0.250,551
2021-09-09T13:14:44,42.805,6.029,CST-1368DR,5236,7167,14662,0.252,551
2021-09-09T13:17:46,42.805,6.029,CST-1368DR,5236,7171,14669,0.250,551
2021-09-09T13:20:47,42.805,6.029,CST-1368DR,5236,7172,14671,0.250,551
2021-09-09T13:23:49,42.805,6.029,CST-1368DR,5236,7172,14671,0.250,551
2021-09-09T13:26:50,42.805,6.029,CST-1368DR,5236,7171,14670,0.250,551
2021-09-09T13:29:52,42.805,6.029,CST-1368DR,5236,7172,14671,0.250,551
2021-09-09T13:32:54,42.805,6.029,CST-1368DR,5236,7172,14672,0.249,551
2021-09-09T13:35:55,42.805,6.029,CST-1368DR,5236,7171,14670,0.250,551
2021-09-09T13:38:57,42.805,6.029,CST-1368DR,5236,7171,14670,0.250,551
2021-09-09T13:41:58,42.805,6.029,CST-1368DR,5236,7172,14671,0.250,551
2021-09-09T13:45:00,42.805,6.029,CST-1368DR,5236,7170,14668,0.251,551
2021-09-09T13:48:02,42.805,6.029,CST-1368DR,5236,7170,14669,0.250,550
2021-09-09T13:51:03,42.805,6.029,CST-1368DR,5236,7171,14669,0.250,551
2021-09-09T13:54:05,42.805,6.029,CST-1368DR,5236,7171,14670,0.250,551
2021-09-09T13:57:06,42.805,6.029,CST-1368DR,5236,7171,14670,0.250,551
2021-09-09T14:00:08,42.805,6.029,CST-1368DR,5236,7170,14668,0.251,551
2021-09-09T14:03:09,42.805,6.029,CST-1368DR,5236,7172,14672,0.249,551
2021-09-09T14:06:11,42.805,6.029,CST-1368DR,5236,7171,14670,0.250,551
2021-09-09T14:09:13,42.805,6.029,CST-1368DR,5236,7171,14670,0.250,551
2021-09-09T14:12:14,42.805,6.029,CST-1368DR,5236,7171,14670,0.250,551
2021-09-09T14:15:16,42.805,6.029,CST-1368DR,5236,7172,14672,0.249,551
2021-09-09T14:18:17,42.805,6.029,CST-1368DR,5236,7171,14670,0.250,551
2021-09-09T14:21:19,42.805,6.029,CST-1368DR,5236,7171,14670,0.250,551
2021-09-09T14:24:21,42.805,6.029,CST-1368DR,5236,7172,14672,0.249,551
2021-09-09T14:27:22,42.805,6.029,CST-1368DR,5236,7170,14669,0.250,551
2021-09-09T14:30:24,42.805,6.029,CST-1368DR,5236,7170,14668,0.251,551
2021-09-09T14:33:25,42.805,6.029,CST-1368DR,5236,7171,14670,0.250,551
2021-09-09T14:36:27,42.805,6.029,CST-1368DR,5236,7172,14671,0.250,551
2021-09-09T14:39:28,42.805,6.029,CST-1368DR,5236,7170,14668,0.251,551
2021-09-09T14:42:30,42.805,6.029,CST-1368DR,5236,7171,14670,0.250,551
2021-09-09T14:45:32,42.805,6.029,CST-1368DR,5236,7171,14670,0.250,551
2021-09-09T14:48:33,42.805,6.029,CST-1368DR,5236,7169,14666,0.251,551
2021-09-09T14:51:35,42.805,6.029,CST-1368DR,5236,7169,14666,0.251,551
2021-09-09T14:54:36,42.805,6.029,CST-1368DR,5236,7170,14668,0.251,551
2021-09-09T14:57:38,42.805,6.029,CST-1368DR,5236,7168,14664,0.252,551
2021-09-09T15:00:40,42.805,6.029,CST-1368DR,5236,7171,14670,0.250,551
2021-09-09T15:03:41,42.805,6.029,CST-1368DR,5236,7170,14668,0.251,551
2021-09-09T15:06:43,42.805,6.029,CST-1368DR,5236,7171,14669,0.250,551
2021-09-09T15:09:44,42.805,6.029,CST-1368DR,5236,7166,14659,0.253,551
2021-09-09T15:12:46,42.805,6.029,CST-1368DR,5236,7170,14668,0.251,551
2021-09-09T15:15:47,42.805,6.029,CST-1368DR,5236,7169,14667,0.251,551
2021-09-09T15:18:49,42.805,6.029,CST-1368DR,5236,7166,14659,0.253,551
2021-09-09T15:21:51,42.805,6.029,CST-1368DR,5236,7170,14667,0.251,551
2021-09-09T15:24:52,42.805,6.029,CST-1368DR,5236,7170,14668,0.251,551
2021-09-09T15:27:54,42.805,6.029,CST-1368DR,5236,7169,14666,0.251,551
2021-09-09T15:30:55,42.805,6.029,CST-1368DR,5236,7170,14669,0.250,551
2021-09-09T15:33:57,42.805,6.029,CST-1368DR,5236,7169,14667,0.251,551
2021-09-09T15:36:58,42.805,6.029,CST-1368DR,5236,7170,14668,0.251,551
2021-09-09T15:40:00,42.805,6.029,CST-1368DR,5236,7169,14667,0.251,551
2021-09-09T15:43:02,42.805,6.029,CST-1368DR,5236,7170,14668,0.251,551
2021-09-09T15:46:03,42.805,6.029,CST-1368DR,5236,7170,14669,0.250,551
2021-09-09T15:49:05,42.805,6.029,CST-1368DR,5236,7170,14668,0.251,551
2021-09-09T15:52:06,42.805,6.029,CST-1368DR,5236,7170,14668,0.251,551
2021-09-09T15:55:08,42.805,6.029,CST-1368DR,5236,7169,14666,0.251,551
2021-09-09T15:58:10,42.805,6.029,CST-1368DR,5236,7169,14667,0.251,551
2021-09-09T16:01:11,42.805,6.029,CST-1368DR,5236,7169,14666,0.251,551
2021-09-09T16:04:13,42.805,6.029,CST-1368DR,5236,7170,14667,0.251,551
2021-09-09T16:07:14,42.805,6.029,CST-1368DR,5236,7168,14665,0.251,551
2021-09-09T16:10:16,42.805,6.029,CST-1368DR,5236,7170,14667,0.251,551
2021-09-09T16:13:17,42.805,6.029,CST-1368DR,5236,7169,14667,0.251,551
2021-09-09T16:16:19,42.805,6.029,CST-1368DR,5236,7170,14668,0.251,551
2021-09-09T16:19:21,42.805,6.029,CST-1368DR,5236,7169,14666,0.251,551
2021-09-09T16:22:22,42.805,6.029,CST-1368DR,5236,7170,14668,0.251,551
2021-09-09T16:25:24,42.805,6.029,CST-1368DR,5236,7170,14668,0.251,551
2021-09-09T16:28:25,42.805,6.029,CST-1368DR,5236,7170,14668,0.251,551
2021-09-09T16:31:27,42.805,6.029,CST-1368DR,5236,7167,14663,0.252,551
2021-09-09T16:34:28,42.805,6.029,CST-1368DR,5236,7169,14666,0.251,551
2021-09-09T16:37:30,42.805,6.029,CST-1368DR,5236,7170,14668,0.251,551
2021-09-09T16:40:32,42.805,6.029,CST-1368DR,5236,7170,14668,0.251,551
2021-09-09T16:43:33,42.805,6.029,CST-1368DR,5236,7168,14664,0.252,551
2021-09-09T16:46:35,42.805,6.029,CST-1368DR,5235,7170,14670,0.250,551
2021-09-09T16:49:36,42.805,6.029,CST-1368DR,5236,7170,14667,0.251,551
2021-09-09T16:52:38,42.805,6.029,CST-1368DR,5236,7169,14666,0.251,551